Time,TemperatureF,DewpointF,PressureIn,WindDirection,WindDirectionDegrees,WindSpeedMPH,WindSpeedGustMPH,Humidity,HourlyPrecipIn,Conditions,Clouds,dailyrainin,SoftwareType,DateUTC
2013-09-18 00:02:00,61.5,59.8,29.83,SSE,155,6.0,9.0,94,0.00,,,0.00,Wunderground v.1.15,2013-09-18 05:02:00,
2013-09-18 00:07:00,61.7,60.0,29.82,SSE,156,6.0,12.0,94,0.00,,,0.00,Wunderground v.1.15,2013-09-18 05:07:00,
2013-09-18 00:13:00,61.9,60.2,29.82,SSE,166,8.0,13.0,94,0.00,,,0.00,Wunderground v.1.15,2013-09-18 05:13:00,
2013-09-18 00:19:00,62.1,60.4,29.82,SSE,165,7.0,13.0,94,0.00,,,0.00,Wunderground v.1.15,2013-09-18 05:19:00,
2013-09-18 00:24:00,62.2,60.5,29.82,SSE,155,6.0,8.0,94,0.00,,,0.00,Wunderground v.1.15,2013-09-18 05:24:00,
2013-09-18 00:30:00,62.3,60.6,29.81,SE,144,5.0,8.0,94,0.00,,,0.00,Wunderground v.1.15,2013-09-18 05:30:00,
2013-09-18 00:36:00,62.4,60.7,29.81,SSE,161,7.0,9.0,94,0.00,,,0.00,Wunderground v.1.15,2013-09-18 05:36:00,
2013-09-18 00:39:00,62.5,60.7,29.81,SSE,150,10.0,10.0,94,0.00,,,0.00,Wunderground v.1.15,2013-09-18 05:39:00,
2013-09-18 00:44:00,62.7,60.9,29.81,South,173,4.0,13.0,94,0.00,,,0.00,Wunderground v.1.15,2013-09-18 05:44:00,
2013-09-18 00:51:00,62.8,61.0,29.81,SSE,159,7.0,7.0,94,0.00,,,0.00,Wunderground v.1.15,2013-09-18 05:51:00,
2013-09-18 00:56:00,62.9,61.1,29.81,SSE,160,8.0,9.0,94,0.00,,,0.00,Wunderground v.1.15,2013-09-18 05:56:00,
2013-09-18 01:01:00,63.0,61.2,29.81,SSE,153,3.0,7.0,94,0.00,,,0.00,Wunderground v.1.15,2013-09-18 06:01:00,
2013-09-18 01:07:00,63.1,61.3,29.80,SSE,164,7.0,12.0,94,0.00,,,0.00,Wunderground v.1.15,2013-09-18 06:07:00,
2013-09-18 01:12:00,63.2,61.4,29.80,SSE,148,4.0,6.0,94,0.00,,,0.00,Wunderground v.1.15,2013-09-18 06:12:00,
2013-09-18 01:17:00,63.4,61.6,29.80,South,175,12.0,12.0,94,0.00,,,0.00,Wunderground v.1.15,2013-09-18 06:17:00,
2013-09-18 01:23:00,63.4,61.6,29.80,SSE,157,4.0,7.0,94,0.00,,,0.00,Wunderground v.1.15,2013-09-18 06:23:00,
2013-09-18 01:29:00,63.5,61.7,29.80,SSE,161,6.0,9.0,94,0.00,,,0.00,Wunderground v.1.15,2013-09-18 06:29:00,
2013-09-18 01:34:00,63.6,61.8,29.80,SSE,148,7.0,8.0,94,0.00,,,0.00,Wunderground v.1.15,2013-09-18 06:34:00,
2013-09-18 01:41:00,63.8,62.0,29.80,SSE,148,12.0,12.0,94,0.00,,,0.00,Wunderground v.1.15,2013-09-18 06:41:00,
2013-09-18 01:46:00,63.9,62.1,29.79,SSE,156,4.0,12.0,94,0.00,,,0.00,Wunderground v.1.15,2013-09-18 06:46:00,
2013-09-18 01:51:00,64.0,62.2,29.79,SSE,165,9.0,10.0,94,0.00,,,0.00,Wunderground v.1.15,2013-09-18 06:51:00,
2013-09-18 01:57:00,64.1,62.3,29.79,SSE,155,9.0,10.0,94,0.00,,,0.00,Wunderground v.1.15,2013-09-18 06:57:00,
2013-09-18 02:02:00,64.1,62.3,29.79,SSE,155,11.0,13.0,94,0.00,,,0.00,Wunderground v.1.15,2013-09-18 07:02:00,
2013-09-18 02:07:00,64.2,62.4,29.79,SSE,164,11.0,15.0,94,0.00,,,0.00,Wunderground v.1.15,2013-09-18 07:07:00,
2013-09-18 02:12:00,64.2,62.4,29.79,SSE,167,8.0,14.0,94,0.00,,,0.00,Wunderground v.1.15,2013-09-18 07:12:00,
2013-09-18 02:17:00,64.3,62.5,29.79,South,173,5.0,15.0,94,0.00,,,0.00,Wunderground v.1.15,2013-09-18 07:17:00,
2013-09-18 02:22:00,64.4,62.6,29.78,SSE,165,0.0,11.0,94,0.00,,,0.00,Wunderground v.1.15,2013-09-18 07:22:00,
2013-09-18 02:27:00,64.4,62.6,29.78,SSE,161,6.0,13.0,94,0.00,,,0.00,Wunderground v.1.15,2013-09-18 07:27:00,
2013-09-18 02:32:00,64.5,62.7,29.78,South,176,12.0,12.0,94,0.00,,,0.00,Wunderground v.1.15,2013-09-18 07:32:00,
2013-09-18 02:37:00,64.6,62.8,29.78,South,180,10.0,14.0,94,0.00,,,0.00,Wunderground v.1.15,2013-09-18 07:37:00,
2013-09-18 02:42:00,64.7,62.9,29.77,SSE,159,9.0,13.0,94,0.00,,,0.00,Wunderground v.1.15,2013-09-18 07:42:00,
2013-09-18 02:47:00,64.7,62.9,29.77,SSE,167,9.0,14.0,94,0.00,,,0.00,Wunderground v.1.15,2013-09-18 07:47:00,
2013-09-18 02:52:00,64.8,63.0,29.77,SSE,163,5.0,8.0,94,0.00,,,0.00,Wunderground v.1.15,2013-09-18 07:52:00,
2013-09-18 02:57:00,64.8,63.0,29.76,SSE,156,1.0,11.0,94,0.00,,,0.00,Wunderground v.1.15,2013-09-18 07:57:00,
2013-09-18 03:03:00,64.9,63.1,29.76,SSE,165,5.0,12.0,94,0.00,,,0.00,Wunderground v.1.15,2013-09-18 08:03:00,
2013-09-18 03:08:00,65.0,63.2,29.76,South,172,6.0,13.0,94,0.00,,,0.00,Wunderground v.1.15,2013-09-18 08:08:00,
2013-09-18 03:13:00,65.0,63.2,29.76,SSE,166,9.0,14.0,94,0.00,,,0.00,Wunderground v.1.15,2013-09-18 08:13:00,
2013-09-18 03:18:00,65.1,63.3,29.75,SSE,165,4.0,14.0,94,0.00,,,0.00,Wunderground v.1.15,2013-09-18 08:18:00,
2013-09-18 03:23:00,65.1,63.3,29.75,South,175,10.0,10.0,94,0.00,,,0.00,Wunderground v.1.15,2013-09-18 08:23:00,
2013-09-18 03:28:00,65.2,63.4,29.75,South,173,2.0,10.0,94,0.00,,,0.00,Wunderground v.1.15,2013-09-18 08:28:00,
2013-09-18 03:33:00,65.2,63.4,29.75,South,176,5.0,9.0,94,0.00,,,0.00,Wunderground v.1.15,2013-09-18 08:33:00,
2013-09-18 03:38:00,65.3,63.5,29.75,SSE,159,7.0,10.0,94,0.00,,,0.00,Wunderground v.1.15,2013-09-18 08:38:00,
2013-09-18 03:43:00,65.3,63.5,29.75,South,179,2.0,10.0,94,0.00,,,0.00,Wunderground v.1.15,2013-09-18 08:43:00,
2013-09-18 03:48:00,65.4,63.6,29.75,South,171,4.0,10.0,94,0.00,,,0.00,Wunderground v.1.15,2013-09-18 08:48:00,
2013-09-18 03:53:00,65.5,63.7,29.75,South,169,5.0,9.0,94,0.00,,,0.00,Wunderground v.1.15,2013-09-18 08:53:00,
2013-09-18 03:58:00,65.6,63.8,29.75,South,184,8.0,11.0,94,0.00,,,0.00,Wunderground v.1.15,2013-09-18 08:58:00,
2013-09-18 04:03:00,65.7,63.9,29.75,South,178,5.0,11.0,94,0.00,,,0.00,Wunderground v.1.15,2013-09-18 09:03:00,
2013-09-18 04:08:00,65.7,63.9,29.74,South,175,3.0,11.0,94,0.00,,,0.00,Wunderground v.1.15,2013-09-18 09:08:00,
2013-09-18 04:13:00,65.7,63.9,29.74,South,180,7.0,11.0,94,0.00,,,0.00,Wunderground v.1.15,2013-09-18 09:13:00,
2013-09-18 04:18:00,65.7,63.9,29.74,South,171,5.0,11.0,94,0.00,,,0.00,Wunderground v.1.15,2013-09-18 09:18:00,
2013-09-18 04:23:00,65.8,64.0,29.74,South,185,8.0,11.0,94,0.00,,,0.00,Wunderground v.1.15,2013-09-18 09:23:00,
2013-09-18 04:28:00,65.8,64.0,29.73,SSW,200,7.0,11.0,94,0.00,,,0.00,Wunderground v.1.15,2013-09-18 09:28:00,
2013-09-18 04:33:00,65.9,64.1,29.73,SSE,164,8.0,9.0,94,0.00,,,0.00,Wunderground v.1.15,2013-09-18 09:33:00,
2013-09-18 04:38:00,66.0,64.2,29.73,South,172,4.0,11.0,94,0.00,,,0.00,Wunderground v.1.15,2013-09-18 09:38:00,
2013-09-18 04:43:00,66.0,64.2,29.73,South,185,4.0,9.0,94,0.00,,,0.00,Wunderground v.1.15,2013-09-18 09:43:00,
2013-09-18 04:48:00,66.1,64.3,29.73,South,178,8.0,10.0,94,0.00,,,0.00,Wunderground v.1.15,2013-09-18 09:48:00,
2013-09-18 04:53:00,66.1,64.3,29.73,SSE,164,4.0,9.0,94,0.00,,,0.00,Wunderground v.1.15,2013-09-18 09:53:00,
2013-09-18 04:58:00,66.1,64.3,29.73,South,173,6.0,9.0,94,0.00,,,0.00,Wunderground v.1.15,2013-09-18 09:58:00,
2013-09-18 05:03:00,66.1,64.3,29.72,South,169,5.0,8.0,94,0.00,,,0.00,Wunderground v.1.15,2013-09-18 10:03:00,
2013-09-18 05:08:00,66.2,64.4,29.72,South,175,1.0,11.0,94,0.00,,,0.00,Wunderground v.1.15,2013-09-18 10:08:00,
2013-09-18 05:13:00,66.2,64.4,29.73,South,180,8.0,10.0,94,0.00,,,0.00,Wunderground v.1.15,2013-09-18 10:13:00,
2013-09-18 05:18:00,66.3,64.5,29.73,South,171,3.0,10.0,94,0.00,,,0.00,Wunderground v.1.15,2013-09-18 10:18:00,
2013-09-18 05:23:00,66.3,64.5,29.73,SSE,167,2.0,8.0,94,0.00,,,0.00,Wunderground v.1.15,2013-09-18 10:23:00,
2013-09-18 05:28:00,66.3,64.5,29.72,South,169,0.0,8.0,94,0.00,,,0.00,Wunderground v.1.15,2013-09-18 10:28:00,
2013-09-18 05:33:00,66.3,64.5,29.72,SSE,163,3.0,7.0,94,0.00,,,0.00,Wunderground v.1.15,2013-09-18 10:33:00,
2013-09-18 05:38:00,66.3,64.5,29.72,South,171,3.0,7.0,94,0.00,,,0.00,Wunderground v.1.15,2013-09-18 10:38:00,
2013-09-18 05:43:00,66.3,64.5,29.73,SSE,156,4.0,8.0,94,0.00,,,0.00,Wunderground v.1.15,2013-09-18 10:43:00,
2013-09-18 05:48:00,66.3,64.2,29.73,SSE,165,1.0,9.0,93,0.00,,,0.00,Wunderground v.1.15,2013-09-18 10:48:00,
2013-09-18 05:53:00,66.3,64.2,29.73,SSE,161,0.0,6.0,93,0.00,,,0.00,Wunderground v.1.15,2013-09-18 10:53:00,
2013-09-18 05:58:00,66.3,64.2,29.73,SSE,160,5.0,8.0,93,0.00,,,0.00,Wunderground v.1.15,2013-09-18 10:58:00,
2013-09-18 06:03:00,66.3,64.2,29.73,SSE,156,6.0,9.0,93,0.00,,,0.00,Wunderground v.1.15,2013-09-18 11:03:00,
2013-09-18 06:08:00,66.3,64.2,29.73,SSE,160,7.0,9.0,93,0.00,,,0.00,Wunderground v.1.15,2013-09-18 11:08:00,
2013-09-18 06:13:00,66.3,64.2,29.73,SSE,152,4.0,9.0,93,0.00,,,0.00,Wunderground v.1.15,2013-09-18 11:13:00,
2013-09-18 06:19:00,66.4,64.3,29.73,SSE,156,5.0,9.0,93,0.00,,,0.00,Wunderground v.1.15,2013-09-18 11:19:00,
2013-09-18 06:24:00,66.4,64.3,29.73,SSE,161,8.0,10.0,93,0.00,,,0.00,Wunderground v.1.15,2013-09-18 11:24:00,
2013-09-18 06:29:00,66.5,64.4,29.73,SSE,167,6.0,10.0,93,0.00,,,0.00,Wunderground v.1.15,2013-09-18 11:29:00,
2013-09-18 06:34:00,66.5,64.4,29.72,SSE,163,5.0,8.0,93,0.00,,,0.00,Wunderground v.1.15,2013-09-18 11:34:00,
2013-09-18 06:39:00,66.7,64.6,29.72,SSE,163,9.0,11.0,93,0.00,,,0.00,Wunderground v.1.15,2013-09-18 11:39:00,
2013-09-18 06:44:00,66.8,64.7,29.72,South,183,6.0,10.0,93,0.00,,,0.00,Wunderground v.1.15,2013-09-18 11:44:00,
2013-09-18 06:49:00,66.8,64.7,29.72,SSE,163,8.0,10.0,93,0.00,,,0.00,Wunderground v.1.15,2013-09-18 11:49:00,
2013-09-18 06:54:00,66.9,64.8,29.72,South,173,2.0,9.0,93,0.00,,,0.00,Wunderground v.1.15,2013-09-18 11:54:00,
2013-09-18 06:59:00,66.9,64.8,29.72,South,173,3.0,9.0,93,0.00,,,0.00,Wunderground v.1.15,2013-09-18 11:59:00,
2013-09-18 07:04:00,66.8,64.4,29.72,South,171,6.0,9.0,92,0.00,,,0.00,Wunderground v.1.15,2013-09-18 12:04:00,
2013-09-18 07:09:00,66.8,64.4,29.72,SSE,165,4.0,10.0,92,0.00,,,0.00,Wunderground v.1.15,2013-09-18 12:09:00,
2013-09-18 07:14:00,66.7,64.3,29.72,SSE,165,7.0,10.0,92,0.00,,,0.00,Wunderground v.1.15,2013-09-18 12:14:00,
2013-09-18 07:19:00,66.7,64.3,29.72,SSE,167,2.0,10.0,92,0.00,,,0.00,Wunderground v.1.15,2013-09-18 12:19:00,
2013-09-18 07:24:00,66.6,64.2,29.72,South,172,7.0,9.0,92,0.00,,,0.00,Wunderground v.1.15,2013-09-18 12:24:00,
2013-09-18 07:29:00,66.6,64.2,29.72,SSE,163,10.0,10.0,92,0.00,,,0.00,Wunderground v.1.15,2013-09-18 12:29:00,
2013-09-18 07:34:00,66.6,64.2,29.72,SSE,166,8.0,9.0,92,0.00,,,0.00,Wunderground v.1.15,2013-09-18 12:34:00,
2013-09-18 07:39:00,66.6,64.2,29.72,South,172,5.0,9.0,92,0.00,,,0.00,Wunderground v.1.15,2013-09-18 12:39:00,
2013-09-18 07:44:00,66.7,64.3,29.72,SSE,166,5.0,8.0,92,0.00,,,0.00,Wunderground v.1.15,2013-09-18 12:44:00,
2013-09-18 07:49:00,66.6,64.2,29.72,SSE,168,7.0,8.0,92,0.00,,,0.00,Wunderground v.1.15,2013-09-18 12:49:00,
2013-09-18 07:54:00,66.7,64.3,29.72,South,176,5.0,9.0,92,0.00,,,0.00,Wunderground v.1.15,2013-09-18 12:54:00,
2013-09-18 07:59:00,66.8,64.4,29.72,South,172,2.0,11.0,92,0.00,,,0.00,Wunderground v.1.15,2013-09-18 12:59:00,
2013-09-18 08:04:00,66.9,64.5,29.72,SSE,158,5.0,9.0,92,0.00,,,0.00,Wunderground v.1.15,2013-09-18 13:04:00,
2013-09-18 08:09:00,67.0,64.6,29.72,South,186,10.0,10.0,92,0.00,,,0.00,Wunderground v.1.15,2013-09-18 13:09:00,
2013-09-18 08:15:00,67.0,64.6,29.72,South,182,3.0,9.0,92,0.00,,,0.00,Wunderground v.1.15,2013-09-18 13:15:00,
2013-09-18 08:20:00,67.1,64.7,29.72,South,178,6.0,12.0,92,0.00,,,0.00,Wunderground v.1.15,2013-09-18 13:20:00,
2013-09-18 08:25:00,67.3,64.9,29.72,South,178,6.0,16.0,92,0.00,,,0.00,Wunderground v.1.15,2013-09-18 13:25:00,
2013-09-18 08:31:00,67.4,64.7,29.72,South,182,4.0,7.0,91,0.00,,,0.00,Wunderground v.1.15,2013-09-18 13:31:00,
2013-09-18 08:36:00,67.5,64.8,29.72,South,188,4.0,10.0,91,0.00,,,0.00,Wunderground v.1.15,2013-09-18 13:36:00,
2013-09-18 08:41:00,67.6,64.9,29.72,South,174,5.0,6.0,91,0.00,,,0.00,Wunderground v.1.15,2013-09-18 13:41:00,
2013-09-18 08:46:00,67.6,64.9,29.72,SSE,168,8.0,14.0,91,0.00,,,0.00,Wunderground v.1.15,2013-09-18 13:46:00,
2013-09-18 08:51:00,67.6,64.9,29.72,South,186,8.0,14.0,91,0.00,,,0.00,Wunderground v.1.15,2013-09-18 13:51:00,
2013-09-18 08:56:00,67.6,64.9,29.72,South,176,5.0,14.0,91,0.00,,,0.00,Wunderground v.1.15,2013-09-18 13:56:00,
2013-09-18 09:01:00,67.7,65.0,29.72,South,188,8.0,8.0,91,0.00,,,0.00,Wunderground v.1.15,2013-09-18 14:01:00,
2013-09-18 09:07:00,67.7,65.0,29.72,SSE,165,8.0,12.0,91,0.00,,,0.00,Wunderground v.1.15,2013-09-18 14:07:00,
2013-09-18 09:12:00,67.9,65.2,29.72,South,191,4.0,12.0,91,0.00,,,0.00,Wunderground v.1.15,2013-09-18 14:12:00,
2013-09-18 09:17:00,67.9,64.9,29.72,SSW,195,7.0,15.0,90,0.00,,,0.00,Wunderground v.1.15,2013-09-18 14:17:00,
2013-09-18 09:22:00,67.9,64.9,29.72,South,186,12.0,14.0,90,0.00,,,0.00,Wunderground v.1.15,2013-09-18 14:22:00,
2013-09-18 09:27:00,68.1,65.1,29.72,South,191,10.0,14.0,90,0.00,,,0.00,Wunderground v.1.15,2013-09-18 14:27:00,
2013-09-18 09:32:00,68.1,65.1,29.71,SSE,165,8.0,14.0,90,0.00,,,0.00,Wunderground v.1.15,2013-09-18 14:32:00,
2013-09-18 09:37:00,68.4,65.4,29.71,SSW,194,8.0,14.0,90,0.00,,,0.00,Wunderground v.1.15,2013-09-18 14:37:00,
2013-09-18 09:42:00,68.5,65.4,29.71,South,176,9.0,13.0,90,0.00,,,0.00,Wunderground v.1.15,2013-09-18 14:42:00,
2013-09-18 09:47:00,68.6,65.2,29.71,South,191,7.0,15.0,89,0.00,,,0.00,Wunderground v.1.15,2013-09-18 14:47:00,
2013-09-18 09:53:00,68.8,65.4,29.71,South,184,11.0,12.0,89,0.00,,,0.00,Wunderground v.1.15,2013-09-18 14:53:00,
2013-09-18 09:58:00,68.9,65.5,29.71,South,190,14.0,15.0,89,0.00,,,0.00,Wunderground v.1.15,2013-09-18 14:58:00,
2013-09-18 10:03:00,69.1,65.7,29.71,SSE,167,11.0,14.0,89,0.00,,,0.00,Wunderground v.1.15,2013-09-18 15:03:00,
2013-09-18 10:08:00,69.4,66.0,29.71,South,178,4.0,14.0,89,0.00,,,0.00,Wunderground v.1.15,2013-09-18 15:08:00,
2013-09-18 10:13:00,69.6,66.2,29.71,SSW,195,2.0,8.0,89,0.00,,,0.00,Wunderground v.1.15,2013-09-18 15:13:00,
2013-09-18 10:18:00,69.8,66.1,29.71,SSW,211,9.0,11.0,88,0.00,,,0.00,Wunderground v.1.15,2013-09-18 15:18:00,
2013-09-18 10:23:00,69.9,66.2,29.71,SSW,199,5.0,13.0,88,0.00,,,0.00,Wunderground v.1.15,2013-09-18 15:23:00,
2013-09-18 10:28:00,70.0,66.3,29.71,South,184,7.0,13.0,88,0.00,,,0.00,Wunderground v.1.15,2013-09-18 15:28:00,
2013-09-18 10:33:00,70.1,66.0,29.70,SSW,195,6.0,13.0,87,0.00,,,0.00,Wunderground v.1.15,2013-09-18 15:33:00,
2013-09-18 10:38:00,70.3,66.2,29.70,SSW,213,9.0,13.0,87,0.00,,,0.00,Wunderground v.1.15,2013-09-18 15:38:00,
2013-09-18 10:43:00,70.7,66.6,29.70,SSW,195,10.0,11.0,87,0.00,,,0.00,Wunderground v.1.15,2013-09-18 15:43:00,
2013-09-18 10:48:00,71.0,66.6,29.70,South,175,9.0,14.0,86,0.00,,,0.00,Wunderground v.1.15,2013-09-18 15:48:00,
2013-09-18 10:53:00,71.1,66.7,29.70,South,190,6.0,15.0,86,0.00,,,0.00,Wunderground v.1.15,2013-09-18 15:53:00,
2013-09-18 10:58:00,71.4,66.7,29.69,SSW,196,7.0,15.0,85,0.00,,,0.00,Wunderground v.1.15,2013-09-18 15:58:00,
2013-09-18 11:01:00,71.6,66.8,29.69,SSW,200,12.0,13.0,85,0.00,,,0.00,Wunderground v.1.15,2013-09-18 16:01:00,
2013-09-18 11:06:00,72.0,67.2,29.69,South,183,13.0,13.0,85,0.00,,,0.00,Wunderground v.1.15,2013-09-18 16:06:00,
2013-09-18 11:11:00,72.2,67.1,29.69,South,175,6.0,10.0,84,0.00,,,0.00,Wunderground v.1.15,2013-09-18 16:11:00,
2013-09-18 11:16:00,72.4,66.9,29.69,South,184,6.0,13.0,83,0.00,,,0.00,Wunderground v.1.15,2013-09-18 16:16:00,
2013-09-18 11:21:00,72.9,67.4,29.69,South,182,6.0,13.0,83,0.00,,,0.00,Wunderground v.1.15,2013-09-18 16:21:00,
2013-09-18 11:26:00,73.2,67.7,29.68,South,188,10.0,13.0,83,0.00,,,0.00,Wunderground v.1.15,2013-09-18 16:26:00,
2013-09-18 11:31:00,74.0,68.5,29.68,SSW,195,5.0,9.0,83,0.00,,,0.00,Wunderground v.1.15,2013-09-18 16:31:00,
2013-09-18 11:36:00,74.8,68.6,29.68,SSE,165,7.0,12.0,81,0.00,,,0.00,Wunderground v.1.15,2013-09-18 16:36:00,
2013-09-18 11:41:00,75.7,69.1,29.68,South,178,6.0,10.0,80,0.00,,,0.00,Wunderground v.1.15,2013-09-18 16:41:00,
2013-09-18 11:46:00,76.0,69.0,29.67,South,181,6.0,13.0,79,0.00,,,0.00,Wunderground v.1.15,2013-09-18 16:46:00,
2013-09-18 11:52:00,76.5,69.5,29.67,South,176,6.0,12.0,79,0.00,,,0.00,Wunderground v.1.15,2013-09-18 16:52:00,
2013-09-18 11:57:00,76.3,68.9,29.67,SSW,204,10.0,12.0,78,0.00,,,0.00,Wunderground v.1.15,2013-09-18 16:57:00,
2013-09-18 12:02:00,76.4,69.0,29.67,South,180,9.0,11.0,78,0.00,,,0.00,Wunderground v.1.15,2013-09-18 17:02:00,
2013-09-18 12:07:00,77.1,69.7,29.67,South,182,10.0,11.0,78,0.00,,,0.00,Wunderground v.1.15,2013-09-18 17:07:00,
2013-09-18 12:12:00,77.7,69.9,29.66,SSE,167,8.0,9.0,77,0.00,,,0.00,Wunderground v.1.15,2013-09-18 17:12:00,
2013-09-18 12:17:00,78.2,69.6,29.66,SSE,165,5.0,12.0,75,0.00,,,0.00,Wunderground v.1.15,2013-09-18 17:17:00,
2013-09-18 12:22:00,78.2,69.6,29.66,South,186,9.0,13.0,75,0.00,,,0.00,Wunderground v.1.15,2013-09-18 17:22:00,
2013-09-18 12:27:00,78.6,70.0,29.66,South,178,4.0,13.0,75,0.00,,,0.00,Wunderground v.1.15,2013-09-18 17:27:00,
2013-09-18 12:32:00,79.0,70.4,29.65,South,176,7.0,8.0,75,0.00,,,0.00,Wunderground v.1.15,2013-09-18 17:32:00,
2013-09-18 12:37:00,79.1,69.3,29.65,South,179,5.0,12.0,72,0.00,,,0.00,Wunderground v.1.15,2013-09-18 17:37:00,
2013-09-18 12:43:00,79.4,70.0,29.65,SSE,164,3.0,9.0,73,0.00,,,0.00,Wunderground v.1.15,2013-09-18 17:43:00,
2013-09-18 12:48:00,79.4,69.6,29.65,SE,141,6.0,13.0,72,0.00,,,0.00,Wunderground v.1.15,2013-09-18 17:48:00,
2013-09-18 12:53:00,79.7,70.3,29.65,South,182,1.0,9.0,73,0.00,,,0.00,Wunderground v.1.15,2013-09-18 17:53:00,
2013-09-18 12:58:00,80.2,70.4,29.65,SSE,168,6.0,12.0,72,0.00,,,0.00,Wunderground v.1.15,2013-09-18 17:58:00,
2013-09-18 13:03:00,80.7,70.4,29.65,South,187,6.0,10.0,71,0.00,,,0.00,Wunderground v.1.15,2013-09-18 18:03:00,
2013-09-18 13:08:00,80.8,70.5,29.64,South,188,11.0,12.0,71,0.00,,,0.00,Wunderground v.1.15,2013-09-18 18:08:00,
2013-09-18 13:13:00,80.7,70.4,29.64,South,184,5.0,11.0,71,0.00,,,0.00,Wunderground v.1.15,2013-09-18 18:13:00,
2013-09-18 13:18:00,81.1,70.0,29.64,SSW,192,7.0,15.0,69,0.00,,,0.00,Wunderground v.1.15,2013-09-18 18:18:00,
2013-09-18 13:23:00,81.4,70.7,29.64,SSE,167,9.0,13.0,70,0.00,,,0.00,Wunderground v.1.15,2013-09-18 18:23:00,
2013-09-18 13:28:00,82.2,71.0,29.64,South,180,9.0,13.0,69,0.00,,,0.00,Wunderground v.1.15,2013-09-18 18:28:00,
2013-09-18 13:33:00,82.1,70.1,29.63,SSW,194,4.0,12.0,67,0.00,,,0.00,Wunderground v.1.15,2013-09-18 18:33:00,
2013-09-18 13:38:00,82.2,70.6,29.63,SSW,200,4.0,15.0,68,0.00,,,0.00,Wunderground v.1.15,2013-09-18 18:38:00,
2013-09-18 13:43:00,82.5,70.4,29.63,South,187,15.0,15.0,67,0.00,,,0.00,Wunderground v.1.15,2013-09-18 18:43:00,
2013-09-18 13:48:00,83.0,70.9,29.63,South,178,2.0,15.0,67,0.00,,,0.00,Wunderground v.1.15,2013-09-18 18:48:00,
2013-09-18 13:53:00,83.6,70.6,29.62,SSE,155,8.0,15.0,65,0.00,,,0.00,Wunderground v.1.15,2013-09-18 18:53:00,
2013-09-18 13:58:00,83.5,70.5,29.62,SSE,161,13.0,16.0,65,0.00,,,0.00,Wunderground v.1.15,2013-09-18 18:58:00,
2013-09-18 14:03:00,83.4,70.4,29.62,SSE,155,7.0,11.0,65,0.00,,,0.00,Wunderground v.1.15,2013-09-18 19:03:00,
2013-09-18 14:08:00,84.2,71.2,29.61,SSE,168,11.0,16.0,65,0.00,,,0.00,Wunderground v.1.15,2013-09-18 19:08:00,
2013-09-18 14:13:00,84.2,70.7,29.62,South,175,10.0,14.0,64,0.00,,,0.00,Wunderground v.1.15,2013-09-18 19:13:00,
2013-09-18 14:18:00,84.2,71.2,29.62,SE,145,13.0,15.0,65,0.00,,,0.00,Wunderground v.1.15,2013-09-18 19:18:00,
2013-09-18 14:23:00,85.0,71.0,29.61,SSE,152,4.0,12.0,63,0.00,,,0.00,Wunderground v.1.15,2013-09-18 19:23:00,
2013-09-18 14:28:00,84.7,70.7,29.61,SSE,162,11.0,17.0,63,0.00,,,0.00,Wunderground v.1.15,2013-09-18 19:28:00,
2013-09-18 14:33:00,85.4,71.4,29.61,South,182,11.0,11.0,63,0.00,,,0.00,Wunderground v.1.15,2013-09-18 19:33:00,
2013-09-18 14:38:00,85.1,70.6,29.60,SSE,164,10.0,18.0,62,0.00,,,0.00,Wunderground v.1.15,2013-09-18 19:38:00,
2013-09-18 14:44:00,85.2,70.2,29.60,South,178,9.0,14.0,61,0.00,,,0.00,Wunderground v.1.15,2013-09-18 19:44:00,
2013-09-18 14:49:00,85.7,70.7,29.60,SSW,209,12.0,17.0,61,0.00,,,0.00,Wunderground v.1.15,2013-09-18 19:49:00,
2013-09-18 14:54:00,85.8,70.8,29.60,South,179,6.0,15.0,61,0.00,,,0.00,Wunderground v.1.15,2013-09-18 19:54:00,
2013-09-18 14:59:00,86.4,71.4,29.60,SSE,161,11.0,15.0,61,0.00,,,0.00,Wunderground v.1.15,2013-09-18 19:59:00,
2013-09-18 15:04:00,86.1,70.6,29.59,South,190,12.0,17.0,60,0.00,,,0.00,Wunderground v.1.15,2013-09-18 20:04:00,
2013-09-18 15:09:00,86.2,70.2,29.59,SSW,197,6.0,17.0,59,0.00,,,0.00,Wunderground v.1.15,2013-09-18 20:09:00,
2013-09-18 15:14:00,86.3,70.3,29.59,South,181,16.0,18.0,59,0.00,,,0.00,Wunderground v.1.15,2013-09-18 20:14:00,
2013-09-18 15:19:00,86.4,69.9,29.59,South,176,9.0,18.0,58,0.00,,,0.00,Wunderground v.1.15,2013-09-18 20:19:00,
2013-09-18 15:24:00,86.7,70.7,29.59,South,178,8.0,16.0,59,0.00,,,0.00,Wunderground v.1.15,2013-09-18 20:24:00,
2013-09-18 15:29:00,86.8,69.7,29.59,SSW,192,16.0,17.0,57,0.00,,,0.00,Wunderground v.1.15,2013-09-18 20:29:00,
2013-09-18 15:34:00,86.6,69.6,29.59,South,188,16.0,20.0,57,0.00,,,0.00,Wunderground v.1.15,2013-09-18 20:34:00,
2013-09-18 15:39:00,86.6,70.1,29.59,SSE,168,12.0,20.0,58,0.00,,,0.00,Wunderground v.1.15,2013-09-18 20:39:00,
2013-09-18 15:44:00,86.7,70.2,29.59,South,173,13.0,16.0,58,0.00,,,0.00,Wunderground v.1.15,2013-09-18 20:44:00,
2013-09-18 15:49:00,86.7,69.6,29.59,SSW,192,9.0,21.0,57,0.00,,,0.00,Wunderground v.1.15,2013-09-18 20:49:00,
2013-09-18 15:54:00,86.7,69.6,29.58,SSW,192,12.0,21.0,57,0.00,,,0.00,Wunderground v.1.15,2013-09-18 20:54:00,
2013-09-18 15:59:00,86.8,70.2,29.58,South,183,7.0,21.0,58,0.00,,,0.00,Wunderground v.1.15,2013-09-18 20:59:00,
2013-09-18 16:04:00,87.2,70.1,29.58,South,182,8.0,15.0,57,0.00,,,0.00,Wunderground v.1.15,2013-09-18 21:04:00,
2013-09-18 16:09:00,87.4,70.3,29.58,South,178,11.0,15.0,57,0.00,,,0.00,Wunderground v.1.15,2013-09-18 21:09:00,
2013-09-18 16:14:00,87.1,70.0,29.58,SSW,192,10.0,17.0,57,0.00,,,0.00,Wunderground v.1.15,2013-09-18 21:14:00,
2013-09-18 16:20:00,87.4,69.8,29.58,South,184,13.0,17.0,56,0.00,,,0.00,Wunderground v.1.15,2013-09-18 21:20:00,
2013-09-18 16:25:00,87.1,69.5,29.58,South,188,7.0,19.0,56,0.00,,,0.00,Wunderground v.1.15,2013-09-18 21:25:00,
2013-09-18 16:30:00,87.1,70.0,29.58,South,175,11.0,19.0,57,0.00,,,0.00,Wunderground v.1.15,2013-09-18 21:30:00,
2013-09-18 16:35:00,86.8,69.7,29.58,SSE,168,10.0,19.0,57,0.00,,,0.00,Wunderground v.1.15,2013-09-18 21:35:00,
2013-09-18 16:40:00,86.7,70.2,29.58,South,186,21.0,21.0,58,0.00,,,0.00,Wunderground v.1.15,2013-09-18 21:40:00,
2013-09-18 16:45:00,86.3,69.8,29.58,South,190,16.0,18.0,58,0.00,,,0.00,Wunderground v.1.15,2013-09-18 21:45:00,
2013-09-18 16:50:00,86.1,69.6,29.58,SSW,200,7.0,12.0,58,0.00,,,0.00,Wunderground v.1.15,2013-09-18 21:50:00,
2013-09-18 16:55:00,85.7,69.7,29.58,South,190,9.0,13.0,59,0.00,,,0.00,Wunderground v.1.15,2013-09-18 21:55:00,
2013-09-18 17:00:00,84.8,69.4,29.58,South,181,7.0,9.0,60,0.00,,,0.00,Wunderground v.1.15,2013-09-18 22:00:00,
2013-09-18 17:05:00,85.6,70.1,29.58,SSW,209,12.0,18.0,60,0.00,,,0.00,Wunderground v.1.15,2013-09-18 22:05:00,
2013-09-18 17:10:00,85.6,69.6,29.58,SSW,202,10.0,12.0,59,0.00,,,0.00,Wunderground v.1.15,2013-09-18 22:10:00,
2013-09-18 17:15:00,85.7,69.7,29.58,South,191,7.0,19.0,59,0.00,,,0.00,Wunderground v.1.15,2013-09-18 22:15:00,
2013-09-18 17:20:00,85.6,70.1,29.58,SSW,196,10.0,14.0,60,0.00,,,0.00,Wunderground v.1.15,2013-09-18 22:20:00,
2013-09-18 17:25:00,85.0,69.6,29.58,SSW,194,16.0,20.0,60,0.00,,,0.00,Wunderground v.1.15,2013-09-18 22:25:00,
2013-09-18 17:30:00,84.1,69.7,29.58,South,188,10.0,12.0,62,0.00,,,0.00,Wunderground v.1.15,2013-09-18 22:30:00,
2013-09-18 17:35:00,84.6,70.1,29.58,South,184,10.0,16.0,62,0.00,,,0.00,Wunderground v.1.15,2013-09-18 22:35:00,
2013-09-18 17:40:00,84.5,70.0,29.58,South,190,10.0,16.0,62,0.00,,,0.00,Wunderground v.1.15,2013-09-18 22:40:00,
2013-09-18 17:46:00,84.2,69.8,29.58,South,188,11.0,19.0,62,0.00,,,0.00,Wunderground v.1.15,2013-09-18 22:46:00,
2013-09-18 17:51:00,84.1,69.7,29.58,South,190,9.0,12.0,62,0.00,,,0.00,Wunderground v.1.15,2013-09-18 22:51:00,
2013-09-18 17:56:00,84.3,69.9,29.58,South,184,11.0,18.0,62,0.00,,,0.00,Wunderground v.1.15,2013-09-18 22:56:00,
2013-09-18 18:01:00,83.4,69.5,29.58,SSW,202,8.0,22.0,63,0.00,,,0.00,Wunderground v.1.15,2013-09-18 23:01:00,
2013-09-18 18:06:00,83.1,69.7,29.58,South,180,8.0,22.0,64,0.00,,,0.00,Wunderground v.1.15,2013-09-18 23:06:00,
2013-09-18 18:12:00,83.2,69.8,29.58,South,187,12.0,14.0,64,0.00,,,0.00,Wunderground v.1.15,2013-09-18 23:12:00,
2013-09-18 18:17:00,83.2,69.3,29.58,South,191,12.0,15.0,63,0.00,,,0.00,Wunderground v.1.15,2013-09-18 23:17:00,
2013-09-18 18:22:00,83.0,69.6,29.58,South,179,6.0,12.0,64,0.00,,,0.00,Wunderground v.1.15,2013-09-18 23:22:00,
2013-09-18 18:27:00,82.4,69.4,29.58,South,183,12.0,12.0,65,0.00,,,0.00,Wunderground v.1.15,2013-09-18 23:27:00,
2013-09-18 18:32:00,82.3,69.8,29.58,South,189,11.0,11.0,66,0.00,,,0.00,Wunderground v.1.15,2013-09-18 23:32:00,
2013-09-18 18:37:00,82.3,69.8,29.58,South,178,6.0,14.0,66,0.00,,,0.00,Wunderground v.1.15,2013-09-18 23:37:00,
2013-09-18 18:42:00,82.2,69.3,29.58,South,183,12.0,12.0,65,0.00,,,0.00,Wunderground v.1.15,2013-09-18 23:42:00,
2013-09-18 18:47:00,82.0,69.5,29.58,South,183,9.0,12.0,66,0.00,,,0.00,Wunderground v.1.15,2013-09-18 23:47:00,
2013-09-18 18:52:00,81.7,69.7,29.58,South,179,7.0,8.0,67,0.00,,,0.00,Wunderground v.1.15,2013-09-18 23:52:00,
2013-09-18 18:57:00,81.6,69.6,29.58,South,176,4.0,12.0,67,0.00,,,0.00,Wunderground v.1.15,2013-09-18 23:57:00,
2013-09-18 19:02:00,81.3,69.3,29.58,South,173,3.0,6.0,67,0.00,,,0.00,Wunderground v.1.15,2013-09-19 00:02:00,
2013-09-18 19:07:00,80.9,69.3,29.58,South,181,4.0,7.0,68,0.00,,,0.00,Wunderground v.1.15,2013-09-19 00:07:00,
2013-09-18 19:12:00,80.7,69.2,29.57,South,176,3.0,5.0,68,0.00,,,0.00,Wunderground v.1.15,2013-09-19 00:12:00,
2013-09-18 19:17:00,80.1,69.0,29.58,South,187,4.0,8.0,69,0.00,,,0.00,Wunderground v.1.15,2013-09-19 00:17:00,
2013-09-18 19:22:00,79.7,69.0,29.57,South,176,4.0,6.0,70,0.00,,,0.00,Wunderground v.1.15,2013-09-19 00:22:00,
2013-09-18 19:28:00,79.5,68.9,29.57,South,169,4.0,6.0,70,0.00,,,0.00,Wunderground v.1.15,2013-09-19 00:28:00,
2013-09-18 19:33:00,79.2,69.0,29.57,SSE,167,5.0,7.0,71,0.00,,,0.00,Wunderground v.1.15,2013-09-19 00:33:00,
2013-09-18 19:38:00,78.8,68.6,29.57,SSE,167,4.0,7.0,71,0.00,,,0.00,Wunderground v.1.15,2013-09-19 00:38:00,
2013-09-18 19:43:00,78.7,68.9,29.57,SSE,167,5.0,7.0,72,0.00,,,0.00,Wunderground v.1.15,2013-09-19 00:43:00,
2013-09-18 19:48:00,78.4,68.6,29.57,SSE,167,0.0,7.0,72,0.00,,,0.00,Wunderground v.1.15,2013-09-19 00:48:00,
2013-09-18 19:53:00,78.3,68.5,29.57,South,171,7.0,7.0,72,0.00,,,0.00,Wunderground v.1.15,2013-09-19 00:53:00,
2013-09-18 19:58:00,78.3,68.5,29.57,South,169,5.0,8.0,72,0.00,,,0.00,Wunderground v.1.15,2013-09-19 00:58:00,
2013-09-18 20:03:00,77.9,68.5,29.57,SSE,165,5.0,7.0,73,0.00,,,0.00,Wunderground v.1.15,2013-09-19 01:03:00,
2013-09-18 20:08:00,77.7,68.4,29.57,SSE,168,3.0,7.0,73,0.00,,,0.00,Wunderground v.1.15,2013-09-19 01:08:00,
2013-09-18 20:13:00,77.6,68.3,29.57,SSE,167,2.0,7.0,73,0.00,,,0.00,Wunderground v.1.15,2013-09-19 01:13:00,
2013-09-18 20:18:00,77.5,68.2,29.57,SSE,168,5.0,9.0,73,0.00,,,0.00,Wunderground v.1.15,2013-09-19 01:18:00,
2013-09-18 20:23:00,77.3,68.4,29.57,South,170,4.0,8.0,74,0.00,,,0.00,Wunderground v.1.15,2013-09-19 01:23:00,
2013-09-18 20:28:00,77.0,68.1,29.57,South,169,6.0,11.0,74,0.00,,,0.00,Wunderground v.1.15,2013-09-19 01:28:00,
2013-09-18 20:33:00,76.9,68.0,29.57,SSE,168,4.0,8.0,74,0.00,,,0.00,Wunderground v.1.15,2013-09-19 01:33:00,
2013-09-18 20:38:00,76.7,67.8,29.57,SSE,165,4.0,10.0,74,0.00,,,0.00,Wunderground v.1.15,2013-09-19 01:38:00,
2013-09-18 20:43:00,76.6,67.7,29.57,SSE,165,4.0,10.0,74,0.00,,,0.00,Wunderground v.1.15,2013-09-19 01:43:00,
2013-09-18 20:48:00,76.7,67.8,29.57,South,172,6.0,11.0,74,0.00,,,0.00,Wunderground v.1.15,2013-09-19 01:48:00,
2013-09-18 20:53:00,76.7,67.8,29.57,SSE,168,4.0,9.0,74,0.00,,,0.00,Wunderground v.1.15,2013-09-19 01:53:00,
2013-09-18 20:58:00,76.6,67.7,29.58,SSE,167,6.0,9.0,74,0.00,,,0.00,Wunderground v.1.15,2013-09-19 01:58:00,
2013-09-18 21:03:00,76.5,68.0,29.57,South,172,10.0,10.0,75,0.00,,,0.00,Wunderground v.1.15,2013-09-19 02:03:00,
2013-09-18 21:08:00,76.4,67.9,29.58,South,170,7.0,10.0,75,0.00,,,0.00,Wunderground v.1.15,2013-09-19 02:08:00,
2013-09-18 21:13:00,76.3,67.8,29.58,South,170,5.0,9.0,75,0.00,,,0.00,Wunderground v.1.15,2013-09-19 02:13:00,
2013-09-18 21:18:00,76.1,67.6,29.58,SSE,162,3.0,10.0,75,0.00,,,0.00,Wunderground v.1.15,2013-09-19 02:18:00,
2013-09-18 21:23:00,75.9,67.8,29.58,SSE,165,6.0,7.0,76,0.00,,,0.00,Wunderground v.1.15,2013-09-19 02:23:00,
2013-09-18 21:28:00,75.9,67.8,29.58,SSE,167,3.0,9.0,76,0.00,,,0.00,Wunderground v.1.15,2013-09-19 02:28:00,
2013-09-18 21:34:00,76.0,67.9,29.57,South,182,8.0,15.0,76,0.00,,,0.00,Wunderground v.1.15,2013-09-19 02:34:00,
2013-09-18 21:39:00,76.0,67.9,29.57,SSE,164,5.0,15.0,76,0.00,,,0.00,Wunderground v.1.15,2013-09-19 02:39:00,
2013-09-18 21:44:00,75.9,67.4,29.58,South,175,5.0,14.0,75,0.00,,,0.00,Wunderground v.1.15,2013-09-19 02:44:00,
2013-09-18 21:49:00,75.9,67.8,29.58,SSE,164,8.0,14.0,76,0.00,,,0.00,Wunderground v.1.15,2013-09-19 02:49:00,
2013-09-18 21:54:00,75.6,67.5,29.58,SSE,163,6.0,8.0,76,0.00,,,0.00,Wunderground v.1.15,2013-09-19 02:54:00,
2013-09-18 21:59:00,75.7,67.6,29.57,SSE,163,5.0,12.0,76,0.00,,,0.00,Wunderground v.1.15,2013-09-19 02:59:00,
2013-09-18 22:04:00,75.6,67.5,29.58,SSE,165,9.0,10.0,76,0.00,,,0.00,Wunderground v.1.15,2013-09-19 03:04:00,
2013-09-18 22:09:00,75.6,67.5,29.57,SSE,159,6.0,10.0,76,0.00,,,0.00,Wunderground v.1.15,2013-09-19 03:09:00,
2013-09-18 22:14:00,75.5,67.4,29.57,SSE,163,3.0,11.0,76,0.00,,,0.00,Wunderground v.1.15,2013-09-19 03:14:00,
2013-09-18 22:19:00,75.4,67.3,29.57,SSE,159,5.0,12.0,76,0.00,,,0.00,Wunderground v.1.15,2013-09-19 03:19:00,
2013-09-18 22:24:00,75.3,67.2,29.57,SSE,164,7.0,9.0,76,0.00,,,0.00,Wunderground v.1.15,2013-09-19 03:24:00,
2013-09-18 22:29:00,75.2,67.1,29.57,SSE,163,5.0,10.0,76,0.00,,,0.00,Wunderground v.1.15,2013-09-19 03:29:00,
2013-09-18 22:34:00,75.1,67.4,29.57,SSE,155,9.0,12.0,77,0.00,,,0.00,Wunderground v.1.15,2013-09-19 03:34:00,
2013-09-18 22:39:00,75.1,67.4,29.57,SSE,162,6.0,12.0,77,0.00,,,0.00,Wunderground v.1.15,2013-09-19 03:39:00,
2013-09-18 22:44:00,74.9,67.2,29.57,SSE,166,8.0,10.0,77,0.00,,,0.00,Wunderground v.1.15,2013-09-19 03:44:00,
2013-09-18 22:49:00,74.8,67.1,29.56,SSE,165,8.0,14.0,77,0.00,,,0.00,Wunderground v.1.15,2013-09-19 03:49:00,
2013-09-18 22:54:00,74.7,67.0,29.56,SSE,155,5.0,12.0,77,0.00,,,0.00,Wunderground v.1.15,2013-09-19 03:54:00,
2013-09-18 22:59:00,74.6,67.3,29.56,SSE,157,4.0,12.0,78,0.00,,,0.00,Wunderground v.1.15,2013-09-19 03:59:00,
2013-09-18 23:01:00,74.6,67.3,29.56,South,170,7.0,13.0,78,0.00,,,0.00,Wunderground v.1.15,2013-09-19 04:01:00,
2013-09-18 23:06:00,74.6,67.3,29.57,SSE,158,11.0,13.0,78,0.00,,,0.00,Wunderground v.1.15,2013-09-19 04:06:00,
2013-09-18 23:08:00,74.6,67.3,29.56,SSE,167,10.0,15.0,78,0.00,,,0.00,Wunderground v.1.15,2013-09-19 04:08:00,
2013-09-18 23:13:00,74.5,67.2,29.56,South,170,6.0,10.0,78,0.00,,,0.00,Wunderground v.1.15,2013-09-19 04:13:00,
2013-09-18 23:18:00,74.3,67.0,29.56,SSE,160,7.0,11.0,78,0.00,,,0.00,Wunderground v.1.15,2013-09-19 04:18:00,
2013-09-18 23:23:00,74.1,67.2,29.56,SSE,164,5.0,9.0,79,0.00,,,0.00,Wunderground v.1.15,2013-09-19 04:23:00,
2013-09-18 23:28:00,74.0,67.1,29.56,SSE,157,9.0,10.0,79,0.00,,,0.00,Wunderground v.1.15,2013-09-19 04:28:00,
2013-09-18 23:33:00,73.9,67.0,29.56,SSE,167,3.0,10.0,79,0.00,,,0.00,Wunderground v.1.15,2013-09-19 04:33:00,
2013-09-18 23:38:00,73.8,66.9,29.56,SE,146,6.0,11.0,79,0.00,,,0.00,Wunderground v.1.15,2013-09-19 04:38:00,
2013-09-18 23:43:00,73.5,66.9,29.57,SSE,155,6.0,9.0,80,0.00,,,0.00,Wunderground v.1.15,2013-09-19 04:43:00,
2013-09-18 23:48:00,73.4,66.9,29.57,SSE,156,6.0,10.0,80,0.00,,,0.00,Wunderground v.1.15,2013-09-19 04:48:00,
2013-09-18 23:53:00,73.1,66.9,29.57,SSE,156,3.0,10.0,81,0.00,,,0.00,Wunderground v.1.15,2013-09-19 04:53:00,
2013-09-18 23:58:00,73.1,66.9,29.57,SSE,165,3.0,10.0,81,0.00,,,0.00,Wunderground v.1.15,2013-09-19 04:58:00,